Regional Weather Roundup
Issued by NWS Sioux Falls, SD

Home | Current Version | Previous Version | Graphics & Text | Print | Product List | Glossary Off
Versions: 1 2 3 4 5 6 7 8 9 10 11 12 13 14 15 16 17 18 19 20 21 22 23 24 25 26 27 28 29 30 31 32 33 34 35 36 37 38 39 40 41 42 43 44 45 46 47 48 49 50

000
ASUS43 KFSD 271202
RWRFSD

WEATHER ROUNDUP FOR SE SOUTH DAKOTA/SW MINNESOTA/NW IOWA
NATIONAL WEATHER SERVICE SIOUX FALLS SD
600 AM CST TUE JAN 27 2015

NOTE: "FAIR" INDICATES FEW OR NO CLOUDS BELOW 12,000 FEET WITH NO
SIGNIFICANT WEATHER AND OR OBSTRUCTIONS TO VISIBILITY.


SDZ038>040-050-052>070-271300-
SOUTHEAST SOUTH DAKOTA

CITY           SKY/WX    TMP DP  RH WIND       PRES   REMARKS
CHAMBERLAIN    NOT AVBL
HURON          CLEAR     28  26  92 SE6       30.02S WCI  22
6HR MIN TEMP:  24; 6HR MAX TEMP:  29;

MADISON        FAIR      28  28 100 SE3       30.04R
MITCHELL       CLEAR     28  26  92 SE6       30.03F WCI  22
6HR MIN TEMP:  28; 6HR MAX TEMP:  34;

SIOUX FALLS    PTCLDY    26  24  92 CALM      30.05S FOG
6HR MIN TEMP:  24; 6HR MAX TEMP:  32;

WINNER         FAIR      41  31  67 S3        29.95S
YANKTON        CLEAR     27  25  93 CALM      30.07S
$$

MNZ071-072-080-081-089-090-097-098-271300-
SOUTHWEST MINNESOTA

CITY           SKY/WX    TMP DP  RH WIND       PRES   REMARKS
FAIRMONT       CLEAR     28  25  86 N5        30.07S WCI  23
JACKSON        CLOUDY    30  30 100 NE3       30.08R
LUVERNE        FOG       32  32 100 E6        30.07R VSB 1/4 WCI  26
MARSHALL       CLOUDY    28  27  93 CALM      30.09S VSB 1
6HR MIN TEMP:  28; 6HR MAX TEMP:  32;

MONTEVIDEO     CLOUDY    28  28 100 S3        30.09S
PIPESTONE      FOG       30  28  93 SE5       30.05R VSB 1/4 WCI  25
REDWOOD FALLS  CLOUDY    32  28  85 CALM      30.08S
TRACY          FOG       30  29  98 N3        30.08R VSB 1/4
WINDOM         CLOUDY    28  28 100 CALM      30.07S
WORTHINGTON    CLOUDY    28  27  93 NE9       30.07R VSB 1/2 WCI  20
$$

IAZ001>003-012>014-020>022-031-032-NEZ013-014-SDZ071-271300-
NORTHWEST IOWA

CITY           SKY/WX    TMP DP  RH WIND       PRES   REMARKS
ESTHERVILLE    CLEAR     28  27  96 NW3       30.08R
SIOUX CITY     FOG       26  26 100 CALM      30.08S VSB 1
6HR MIN TEMP:  26; 6HR MAX TEMP:  34;

SPENCER        CLOUDY    31  29  92 NE8       30.07S WCI  23
6HR MIN TEMP:  28; 6HR MAX TEMP:  34;

$$

ABBREVIATIONS USED IN REMARKS
   TC - TEMPERATURE IN CELSIUS
  WCI - WIND CHILL INDEX
   HX - HEAT INDEX
  VSB - VISIBILITY



USA.gov is the U.S. government's official web portal to all federal, state and local government web resources and services.